Oakland, MD

1:55 PM EDT on March 23, 2017 (GMT -0400)
Oakland

Weather History for K2G4 - March, 2013

Change the Weather History Date:

Wednesday, March 20, 2013

  Actual Average (KMGW) Record (KMGW)
Temperature  
Mean Temperature 26 °F -  
Max Temperature 32 °F 53 °F 82 °F (2012)
Min Temperature 21 °F 33 °F 12 °F (1965)
Degree Days  
Heating Degree Days 38    
Moisture  
Dew Point 14 °F    
Average Humidity 61    
Maximum Humidity 100    
Minimum Humidity 40    
Precipitation  
Precipitation 0.00 in - - ()
Sea Level Pressure  
Sea Level Pressure 29.80 in    
Wind  
Wind Speed 12 mph (West)    
Max Wind Speed 20 mph    
Max Gust Speed 32 mph    
Visibility 8 miles    
Events Fog    
Averages and records for this station are not official NWS values.
T = Trace of Precipitation, MM = Missing Value Source: NWS Daily Summary

Daily Weather History Graph

Daily Weather History Graph

Search for Another Location

Airport or City:

Trip Planner

Search our weather history database for the weather conditions in past years. The results will help you decide how hot, cold, wet, or windy it might be!

Date:

Astronomy

Mar. 20, 2013 Rise Set
Actual Time 7:20 AM EDT 7:29 PM EDT
Civil Twilight 6:53 AM EDT 7:56 PM EDT
Nautical Twilight 6:22 AM EDT 8:27 PM EDT
Astronomical Twilight 5:50 AM EDT 8:59 PM EDT
Moon 1:04 PM EDT (3/20) 2:57 AM EDT (3/20)
Length of Visible Light 13h 02m
Length of Day
12h 09m
First Quarter, 59% of the Moon is Illuminated
Mar 20
First Quarter
Mar 27
Full
Apr 3
Last Quarter
Apr 10
New
Apr 18
First Quarter

Hourly Weather History & Observations

Time (EDT) Temp. Windchill Dew Point Humidity Pressure Visibility Wind Dir Wind Speed Gust Speed Precip Events Conditions
12:00 AM 26.6 °F 15.7 °F 10.4 °F 51% 29.87 in 10.0 mi West 12.7 mph 25.3 mph N/A   Scattered Clouds
12:20 AM 26.6 °F 15.7 °F 12.2 °F 55% 29.86 in 10.0 mi West 12.7 mph 23.0 mph N/A   Clear
12:40 AM 26.6 °F 13.8 °F 10.4 °F 51% 29.86 in 10.0 mi West 17.3 mph 27.6 mph N/A   Clear
1:00 AM 26.6 °F 14.3 °F 12.2 °F 55% 29.87 in 10.0 mi West 16.1 mph 26.5 mph N/A   Clear
1:20 AM 26.6 °F 14.7 °F 10.4 °F 51% 29.87 in 10.0 mi West 15.0 mph 21.9 mph N/A   Clear
1:40 AM 24.8 °F 12.9 °F 10.4 °F 54% 29.87 in 10.0 mi West 13.8 mph 23.0 mph N/A   Clear
2:00 AM 24.8 °F 13.4 °F 10.4 °F 54% 29.87 in 10.0 mi West 12.7 mph 24.2 mph N/A   Clear
2:20 AM 24.8 °F 14.0 °F 10.4 °F 54% 29.87 in 10.0 mi West 11.5 mph 19.6 mph N/A   Clear
2:40 AM 24.8 °F 12.9 °F 10.4 °F 54% 29.87 in 10.0 mi West 13.8 mph 23.0 mph N/A   Clear
3:00 AM 24.8 °F 14.0 °F 10.4 °F 54% 29.87 in 10.0 mi West 11.5 mph 23.0 mph N/A   Clear
3:20 AM 23.0 °F 11.7 °F 10.4 °F 59% 29.87 in 10.0 mi West 11.5 mph 19.6 mph N/A   Clear
4:00 AM 23.0 °F 10.1 °F 10.4 °F 59% 29.86 in 10.0 mi West 15.0 mph 24.2 mph N/A   Clear
4:20 AM 23.0 °F 11.1 °F 10.4 °F 59% 29.85 in 10.0 mi West 12.7 mph 19.6 mph N/A   Clear
4:40 AM 23.0 °F 9.6 °F 10.4 °F 59% 29.85 in 10.0 mi West 16.1 mph 24.2 mph N/A   Clear
5:00 AM 23.0 °F 11.7 °F 10.4 °F 59% 29.85 in 10.0 mi West 11.5 mph 20.7 mph N/A   Clear
5:20 AM 23.0 °F 12.4 °F 10.4 °F 59% 29.85 in 10.0 mi West 10.4 mph 18.4 mph N/A   Clear
5:40 AM 23.0 °F 12.4 °F 12.2 °F 63% 29.85 in 10.0 mi West 10.4 mph 18.4 mph N/A   Scattered Clouds
6:00 AM 23.0 °F 11.1 °F 12.2 °F 63% 29.85 in 10.0 mi West 12.7 mph 18.4 mph N/A   Clear
6:20 AM 23.0 °F 13.1 °F 12.2 °F 63% 29.85 in 10.0 mi West 9.2 mph 20.7 mph N/A   Scattered Clouds
6:40 AM 23.0 °F 13.1 °F 10.4 °F 59% 29.86 in 10.0 mi West 9.2 mph 19.6 mph N/A   Clear
7:00 AM 23.0 °F 11.1 °F 10.4 °F 59% 29.86 in 10.0 mi West 12.7 mph 19.6 mph N/A   Scattered Clouds
7:20 AM 23.0 °F 10.6 °F 10.4 °F 59% 29.87 in 10.0 mi West 13.8 mph 20.7 mph N/A   Scattered Clouds
8:00 AM 23.0 °F 10.6 °F 12.2 °F 63% 29.87 in 10.0 mi West 13.8 mph 21.9 mph N/A   Overcast
8:20 AM 23.0 °F 13.9 °F 12.2 °F 63% 29.87 in 10.0 mi West 8.1 mph 21.9 mph N/A   Overcast
8:40 AM 23.0 °F 11.1 °F 12.2 °F 63% 29.86 in 10.0 mi West 12.7 mph 21.9 mph N/A   Overcast
9:00 AM 24.8 °F 14.0 °F 12.2 °F 59% 29.86 in 10.0 mi West 11.5 mph 17.3 mph N/A   Mostly Cloudy
9:20 AM 26.6 °F 16.2 °F 8.6 °F 47% 29.85 in 10.0 mi West 11.5 mph 20.7 mph N/A   Mostly Cloudy
9:40 AM 26.6 °F 15.7 °F 8.6 °F 47% 29.85 in 10.0 mi West 12.7 mph 18.4 mph N/A   Scattered Clouds
10:00 AM 26.6 °F 14.3 °F 8.6 °F 47% 29.85 in 10.0 mi West 16.1 mph 21.9 mph N/A   Scattered Clouds
10:20 AM 28.4 °F 18.5 °F 10.4 °F 47% 29.85 in 10.0 mi West 11.5 mph 21.9 mph N/A   Scattered Clouds
10:40 AM 28.4 °F 18.5 °F 10.4 °F 47% 29.84 in 10.0 mi West 11.5 mph 27.6 mph N/A   Mostly Cloudy
11:00 AM 28.4 °F 17.5 °F 10.4 °F 47% 29.84 in 10.0 mi West 13.8 mph 25.3 mph N/A   Mostly Cloudy
11:20 AM 30.2 °F 19.8 °F 8.6 °F 40% 29.84 in 10.0 mi WSW 13.8 mph 25.3 mph N/A   Scattered Clouds
12:00 PM 30.2 °F 17.8 °F 10.4 °F 44% 29.82 in 10.0 mi West 19.6 mph 27.6 mph N/A   Mostly Cloudy
12:20 PM 30.2 °F 22.6 °F 10.4 °F 44% 29.81 in 10.0 mi West 8.1 mph 23.0 mph N/A   Overcast
12:40 PM 30.2 °F 19.3 °F 10.4 °F 44% 29.81 in 10.0 mi WSW 15.0 mph 24.2 mph N/A   Overcast
1:05 PM 32.0 °F 22.5 °F 10.4 °F 41% 29.79 in 10.0 mi West 12.7 mph 24.2 mph N/A   Overcast
1:25 PM 32.0 °F 22.1 °F 10.4 °F 41% 29.79 in 10.0 mi West 13.8 mph 24.2 mph N/A   Overcast
1:45 PM 32.0 °F 21.6 °F 10.4 °F 41% 29.78 in 10.0 mi WSW 15.0 mph 23.0 mph N/A   Overcast
2:05 PM 32.0 °F 20.8 °F 10.4 °F 41% 29.77 in 10.0 mi WSW 17.3 mph 32.2 mph N/A   Overcast
2:25 PM 32.0 °F 21.6 °F 10.4 °F 41% 29.75 in 10.0 mi WSW 15.0 mph 27.6 mph N/A   Overcast
2:45 PM 32.0 °F 21.2 °F 10.4 °F 41% 29.74 in 10.0 mi WSW 16.1 mph 25.3 mph N/A   Mostly Cloudy
3:05 PM 32.0 °F 21.2 °F 10.4 °F 41% 29.74 in 10.0 mi West 16.1 mph 25.3 mph N/A   Overcast
3:25 PM 32.0 °F 24.2 °F 12.2 °F 44% 29.73 in 10.0 mi West 9.2 mph 28.8 mph N/A   Overcast
4:05 PM 32.0 °F 21.2 °F 12.2 °F 44% 29.72 in 10.0 mi WSW 16.1 mph 25.3 mph N/A   Overcast
4:25 PM 32.0 °F 22.5 °F 12.2 °F 44% 29.71 in 10.0 mi WSW 12.7 mph 24.2 mph N/A   Mostly Cloudy
4:45 PM 32.0 °F 23.0 °F 12.2 °F 44% 29.71 in 10.0 mi West 11.5 mph 20.7 mph N/A   Mostly Cloudy
5:05 PM 32.0 °F 24.2 °F 14.0 °F 48% 29.71 in 10.0 mi West 9.2 mph 19.6 mph N/A   Overcast
5:25 PM 32.0 °F 21.2 °F 14.0 °F 48% 29.70 in 10.0 mi West 16.1 mph 25.3 mph N/A   Overcast
5:45 PM 32.0 °F 23.0 °F 15.8 °F 51% 29.71 in 10.0 mi West 11.5 mph 25.3 mph N/A   Overcast
6:05 PM 32.0 °F 22.1 °F 19.4 °F 60% 29.70 in 5.0 mi West 13.8 mph 26.5 mph N/A   Haze
6:25 PM 32.0 °F 24.2 °F 17.6 °F 55% 29.70 in 10.0 mi West 9.2 mph 29.9 mph N/A   Overcast
6:45 PM 30.2 °F 21.9 °F 21.2 °F 69% 29.71 in 10.0 mi West 9.2 mph 17.3 mph N/A   Overcast
7:05 PM 28.4 °F 19.7 °F 26.6 °F 93% 29.72 in 4.0 mi West 9.2 mph - N/A   Overcast
7:25 PM 26.6 °F 17.5 °F 26.6 °F 100% 29.72 in 0.2 mi WNW 9.2 mph - N/A Fog Light Freezing Fog
7:45 PM 26.6 °F 17.5 °F 26.6 °F 100% 29.72 in 1.0 mi West 9.2 mph - N/A   Mist
8:05 PM 26.6 °F 21.2 °F 26.6 °F 100% 29.73 in 4.0 mi WNW 4.6 mph - N/A   Clear
8:25 PM 26.6 °F 16.8 °F 19.4 °F 74% 29.73 in 7.0 mi NW 10.4 mph 18.4 mph N/A   Scattered Clouds
8:45 PM 26.6 °F 16.8 °F 17.6 °F 69% 29.73 in 10.0 mi West 10.4 mph 18.4 mph N/A   Mostly Cloudy
9:05 PM 26.6 °F 17.5 °F 15.8 °F 64% 29.74 in 7.0 mi West 9.2 mph - N/A   Overcast
9:25 PM 26.6 °F 17.5 °F 19.4 °F 74% 29.74 in 7.0 mi NW 9.2 mph - N/A   Overcast
9:45 PM 23.0 °F 15.8 °F 23.0 °F 100% 29.74 in 1.0 mi NW 5.8 mph - N/A   Overcast
10:05 PM 23.0 °F 13.9 °F 23.0 °F 100% 29.75 in 1.5 mi NW 8.1 mph - N/A   Mostly Cloudy
10:25 PM 23.0 °F 15.8 °F 23.0 °F 100% 29.76 in 1.0 mi NW 5.8 mph - N/A   Mostly Cloudy
10:45 PM 21.2 °F 13.6 °F 21.2 °F 100% 29.76 in 1.0 mi NNW 5.8 mph - N/A   Mostly Cloudy
11:05 PM 21.2 °F 14.9 °F 21.2 °F 100% 29.76 in 0.8 mi NNW 4.6 mph - N/A   Mostly Cloudy
11:25 PM 21.2 °F 13.6 °F 21.2 °F 100% 29.76 in 1.0 mi NW 5.8 mph - N/A   Mostly Cloudy
11:45 PM 21.2 °F 13.6 °F 21.2 °F 100% 29.76 in 1.2 mi NW 5.8 mph - N/A   Scattered Clouds